Cut Bank, MT

6:05 AM MST on December 06, 2019 (GMT -0700)
Cut Bank Municipal

Weather History for KCTB - July, 2019

Change the Weather History Date:

Tuesday, July 30, 2019

  Actual Average Record
Temperature  
Mean Temperature 68 °F 66 °F  
Max Temperature 89 °F 82 °F 98 °F (1914)
Min Temperature 47 °F 51 °F 40 °F (1933)
Degree Days  
Heating Degree Days 0 2  
Month to date heating degree days 93 86  
Since 1 June heating degree days 315 319  
Since 1 July heating degree days 93 86  
Cooling Degree Days 3 3  
Month to date cooling degree days 43 69  
Year to date cooling degree days 48 86  
Since 1 June cooling degree days 48 84  
Growing Degree Days 18 (Base 50)    
Moisture  
Dew Point 35 °F    
Average Humidity 33    
Maximum Humidity 66    
Minimum Humidity 12    
Precipitation  
Precipitation 0.00 in 0.03 in 0.53 in (1931)
Month to date precipitation 0.86 1.24  
Year to date precipitation 7.41 7.43  
Snow  
Snow - - - ()
Snow Depth 0.00 in    
Sea Level Pressure  
Sea Level Pressure 29.84 in    
Wind  
Wind Speed 10 mph ()    
Max Wind Speed 26 mph    
Max Gust Speed 36 mph    
Visibility 10.0 miles    
Events      
T = Trace of Precipitation, MM = Missing Value Source: Averaged Metar Reports

Daily Weather History Graph

Daily Weather History Graph

Search for Another Location

Airport or City:

Astronomy

Jul. 30, 2019 Rise Set
Actual Time 6:00 AM MDT 9:10 PM MDT
Civil Twilight 5:23 AM MDT 9:47 PM MDT
Nautical Twilight 4:34 AM MDT 10:36 PM MDT
Astronomical Twilight 3:32 AM MDT 11:36 PM MDT
Moon 4:06 AM MDT (7/30) 8:24 PM MDT (7/30)
Length of Visible Light 16h 24m
Length of Day
15h 09m
Waning Crescent, 3% of the Moon is Illuminated
Jul 30
Waning Crescent
Jul 31
New
Aug 7
First Quarter
Aug 15
Full
Aug 23
Last Quarter

Hourly Weather History & Observations

Time (MDT) Temp. Dew Point Humidity Pressure Visibility Wind Dir Wind Speed Gust Speed Precip Events Conditions
12:56 AM 55.9 °F 36.0 °F 47% 29.86 in 10.0 mi West 4.6 mph - N/A   Clear
1:56 AM 55.9 °F 37.9 °F 51% 29.84 in 10.0 mi West 8.1 mph - N/A   Clear
2:56 AM 54.0 °F 37.9 °F 55% 29.83 in 10.0 mi NW 12.7 mph - N/A   Clear
3:56 AM 50.0 °F 37.0 °F 61% 29.86 in 10.0 mi WNW 6.9 mph - N/A   Clear
4:56 AM 48.9 °F 37.0 °F 64% 29.85 in 10.0 mi West 4.6 mph - N/A   Clear
5:56 AM 48.0 °F 37.0 °F 66% 29.86 in 10.0 mi Calm Calm - N/A   Clear
6:56 AM 48.9 °F 37.9 °F 66% 29.86 in 10.0 mi NNW 5.8 mph - N/A   Clear
7:56 AM 57.9 °F 39.9 °F 51% 29.85 in 10.0 mi NW 4.6 mph - N/A   Clear
8:56 AM 68.0 °F 39.9 °F 36% 29.85 in 10.0 mi WSW 3.5 mph - N/A   Clear
9:56 AM 79.0 °F 37.0 °F 22% 29.83 in 10.0 mi WSW 12.7 mph 20.7 mph N/A   Clear
10:56 AM 82.0 °F 33.1 °F 17% 29.83 in 10.0 mi WSW 25.3 mph 32.2 mph N/A   Clear
11:56 AM 84.9 °F 32.0 °F 15% 29.82 in 10.0 mi West 17.3 mph 25.3 mph N/A   Clear
12:56 PM 86.0 °F 30.0 °F 13% 29.82 in 10.0 mi West 21.9 mph 32.2 mph N/A   Clear
1:56 PM 87.1 °F 28.0 °F 12% 29.81 in 10.0 mi WSW 19.6 mph 31.1 mph N/A   Clear
2:56 PM 87.1 °F 28.0 °F 12% 29.81 in 10.0 mi WSW 20.7 mph 28.8 mph N/A   Clear
3:56 PM 87.1 °F 28.0 °F 12% 29.82 in 10.0 mi WSW 20.7 mph 28.8 mph N/A   Clear
4:56 PM 87.1 °F 30.0 °F 13% 29.83 in 10.0 mi WSW 23.0 mph 29.9 mph N/A   Clear
5:56 PM 84.9 °F 33.1 °F 16% 29.83 in 10.0 mi WSW 18.4 mph 26.5 mph N/A   Clear
6:56 PM 82.9 °F 33.1 °F 17% 29.83 in 10.0 mi WSW 16.1 mph 26.5 mph N/A   Clear
7:56 PM 80.1 °F 34.0 °F 19% 29.83 in 10.0 mi WSW 15.0 mph 24.2 mph N/A   Clear
8:56 PM 73.0 °F 37.0 °F 27% 29.84 in 10.0 mi WSW 10.4 mph - N/A   Clear
9:56 PM 70.0 °F 37.0 °F 30% 29.84 in 10.0 mi WSW 8.1 mph - N/A   Clear
10:56 PM 66.9 °F 37.0 °F 33% 29.85 in 10.0 mi WSW 10.4 mph - N/A   Clear
11:56 PM 63.0 °F 39.0 °F 41% 29.87 in 10.0 mi WNW 12.7 mph - N/A   Clear